Location: Bremen
(53.0830°N, 8.8000°E)
Time: 09:45:16
(UTC+01:00)

Envisat - Visible Passes

Search period start: 30 November 2023 00:00
Search period end: 10 December 2023 00:00
Orbit: 762 x 764 km, 98.3° (Epoch: 29 November)

Date Brightness Start Highest point End Pass type
(mag) Time Alt. Az. Time Alt. Az. Time Alt. Az.
30 Nov 5.5 04:05:01 10° NNE 04:05:41 14° NNE 04:05:41 14° NNE visible
30 Nov 4.9 05:44:42 10° N 05:45:51 15° NNW 05:45:51 15° NNW visible
01 Dec 5.0 05:06:59 10° N 05:08:04 16° N 05:08:04 16° N visible
02 Dec 5.3 04:29:31 10° NNE 04:30:16 14° NNE 04:30:16 14° NNE visible
02 Dec 5.0 06:09:45 10° NNW 06:10:26 12° NNW 06:10:26 12° NNW visible
03 Dec 5.7 03:52:18 10° NNE 03:52:29 11° NNE 03:52:29 11° NNE visible
03 Dec 5.0 05:31:46 10° N 05:32:39 14° N 05:32:39 14° N visible
03 Dec 6.2 16:57:06 10° W 16:57:54 10° W 16:58:43 10° WNW visible
04 Dec 5.2 04:54:09 10° N 04:54:52 14° N 04:54:52 14° N visible
05 Dec 5.6 04:16:45 10° NNE 04:17:06 12° NNE 04:17:06 12° NNE visible
05 Dec 5.1 05:56:41 10° N 05:57:15 12° NNW 05:57:15 12° NNW visible
06 Dec 5.2 05:18:51 10° N 05:19:29 13° N 05:19:29 13° N visible
07 Dec 5.4 04:41:19 10° N 04:41:43 12° N 04:41:43 12° N visible
08 Dec 5.2 05:43:41 10° N 05:44:07 12° N 05:44:07 12° N visible
09 Dec 5.3 05:05:59 10° N 05:06:20 12° N 05:06:20 12° N visible
